USA 270

Last updated on Tue Apr 07 2026 00:02:57 GMT+0000 (Coordinated Universal Time)

1 41744U 16052A 26096.27894732 .00000040 00000+0 00000+0 0 9991 2 41744 4.0138 78.0856 0003233 309.7992 83.0810 1.00343911 27418
UTC large
Height (km)
Speed (km/s)
/
Latitude / Longitude
Inclination (degrees)
Orbital Period (minutes)
Azimuth
Elevation
Range (km)
Doppler Factor

Next 0 passes for location: London (51.5072 / 0.1276)

Sorry there are no passes over London.
USA 270